Regional Weather Roundup
Issued by NWS

Home | Current Version | Previous Version | Text Only | Print | Product List | Glossary On
Versions: 1 2 3 4 5 6 7 8 9 10 11 12 13 14 15 16 17 18 19 20 21 22 23 24 25 26 27 28 29 30 31 32 33 34 35 36 37 38 39 40 41 42 43 44 45 46 47 48 49 50
000
ASUS45 KTFX 170019
RWRMT
MONTANA HOURLY WEATHER ROUNDUP
NATIONAL WEATHER SERVICE GREAT FALLS MT
619 PM MDT WED APR 16 2014

NOTE: "FAIR" INDICATES FEW OR NO CLOUDS BELOW 12000 FEET WITH NO
SIGNIFICANT WEATHER AND/OR OBSTRUCTIONS TO VISIBILITY.

* THESE STATIONS ARE NOT UNDER NWS QUALITY CONTROL. THEY DO NOT
   REPORT WEATHER SUCH AS PRECIPITATION OR FOG.

MTZ001>007-043-170100-
WEST OF THE DIVIDE
CITY           SKY/WX    TMP DP  RH WIND       PRES   REMARKS
KALISPELL      CLOUDY    46  34  63 SE13G18   29.96R
MISSOULA       CLOUDY    48  30  50 SE7       30.00F
BUTTE          CLOUDY    45  18  34 NW12      29.96S
MULLAN PASS    CLOUDY    30  28  92 VRB5      29.96S WCI  25
* ESSEX        N/A       42  30  63 S6G13      N/A
* LINCOLN      N/A       43  29  58 W4G11      N/A
* LOOKOUT PASS N/A       39  32  76 SE2G8      N/A
* PLAINS APT   CLOUDY    50  34  54 W5        30.00S
* POLSON       N/A       40  35  82 SW1G7      N/A
* RONAN APT    CLOUDY    46  30  54 N/A        N/A
* SEELEY LAKE  N/A       45  28  51 NW5G11     N/A
* THOMP F APT  CLOUDY    46   8  21 SW10G16    N/A
$$

MTZ008-052>055-170100-
SOUTHWEST MONTANA
CITY           SKY/WX    TMP DP  RH WIND       PRES   REMARKS
BOZEMAN        MOCLDY    48  21  34 NW10      29.96R
DILLON         CLOUDY    50  12  22 W18       29.94S
W YELLOWSTONE  N/A       43  17  35 SW5G16     N/A
* THREE FORKS  MOCLDY    52  23  32 NW9        N/A
* BOULDER HILL N/A       41  17  38 N4         N/A
* MONIDA PASS  N/A       42  10  27 W8G16      N/A
* RAYNOLDS PAS N/A       40  26  57 S11        N/A   WCI  33
* WHITEHALL    N/A       51  16  25 SW5G14     N/A
* WISE RIVER   N/A       46  16  30 NW15G23    N/A
$$

MTZ009>010-012-014-046-048-049-054-170100-
EAST SLOPES AND CENTRAL MONTANA
CITY           SKY/WX    TMP DP  RH WIND       PRES   REMARKS
CUT BANK       CLOUDY    36  30  79 CALM      29.96F
GREAT FALLS    PTCLDY    41  36  82 E8        29.97S
HELENA         MOCLDY    48  23  37 W13       29.95R
MALMSTROM AFB  PTCLDY    43  36  76 E9        29.95F
* CONRAD       PTCLDY    43  34  71 N/A        N/A
* DEARBORN     N/A       46  32  58 N9         N/A
* EAST GLACIER N/A       30  28  92 S4         N/A
* MONARCH      N/A       36  23  59 SW2        N/A
* PENDROY      N/A       42  29  60 SE8        N/A
* ROGERS PASS  N/A       40  22  49 SE8G17     N/A   WCI  35
* SAINT MARY   N/A       44  34  68 S6G13      N/A
* SWEET GRASS  N/A       35  35 100 S4         N/A
* WHITE SULPH  N/A       44  20  38 NW10G19    N/A
$$

MTZ011-013-016-021-035-040-045-047-050-051-170100-
NORTH CENTRAL MONTANA
CITY           SKY/WX    TMP DP  RH WIND       PRES   REMARKS
HAVRE          CLOUDY    45  28  51 E14       30.02F
LEWISTOWN      CLOUDY    36  32  85 S5        30.01R WCI  32
* CHINOOK      MOCLDY    43  27  53 E13       30.05S
* FORT BENTON  MOCLDY    48  28  46 NE6       30.00S
* MALTA APT    MOCLDY    43  21  42 E8        30.06R
* CHESTER      N/A       43  30  60 SE5G11     N/A
* DENTON       N/A       40  32  73 SW9        N/A   WCI  34
* GEYSER       N/A       34  32  92 NW8        N/A   WCI  27
* JUDITH GAP   N/A       33  33 100 NE6        N/A   WCI  27
* LOMA         N/A       47  26  44 NE4G12     N/A
$$

MTZ017>020-022>027-061-062-170100-
NORTHEAST MONTANA
CITY           SKY/WX    TMP DP  RH WIND       PRES   REMARKS
GLASGOW        MOCLDY    36  19  50 E12       30.14R WCI  28
GLENDIVE       CLOUDY    32  19  59 E13       30.16R WCI  22
JORDAN         MOCLDY    37  21  52 E13       30.09R WCI  29
SIDNEY         CLOUDY    30  19  64 E12       30.22R WCI  20
WOLF POINT     CLOUDY    34  19  54 E8        30.19R WCI  27
* BEAVER HILL  N/A       29  21  72 E12        N/A   WCI  19
* CIRCLE       N/A       35  23  62 E12        N/A   WCI  27
* LINDSAY DVD  N/A       31  20  64 NE11       N/A   WCI  22
* NAVAJO       N/A       26  17  69 E8         N/A   WCI  18
* SACO         N/A       39  20  46 E11G16     N/A   WCI  32
$$

MTZ028>042-056>058-170100-
SOUTHCENTRAL AND SOUTHEAST MONTANA
CITY           SKY/WX    TMP DP  RH WIND       PRES   REMARKS
BAKER          CLOUDY    32  23  69 E14       30.11R WCI  22
BILLINGS       N/A       43  30  60 VRB5      30.01R
LIVINGSTON     PTCLDY    50  19  29 W10       29.94F
MILES CITY     CLOUDY    43  23  45 E7        30.07S
* LAUREL APT   CLOUDY    45  28  51 N13        N/A
* ROUNDUP APT  CLOUDY    41  28  60 N5         N/A
* HYSHAM       N/A       42  24  49 NE6G11     N/A
* LAME DEER    N/A       39  26  60 N9G14      N/A   WCI  33
* REED POINT   N/A       44  31  60 E9         N/A
* ROSCOE HILL  N/A       38  22  53 E11        N/A   WCI  31
$$

REGIONAL REPORTS...DAKOTAS
CITY           SKY/WX    TMP DP  RH WIND       PRES   REMARKS
WILLISTON      CLEAR    N/A N/A N/A N/A       30.23R
DICKINSON      CLOUDY    28  19  69 E13       30.14R WCI  17
CROSBY         N/A       28  23  81 E15       30.26R WCI  16
TIOGA          FOG       27  27 100 E12       30.25R WCI  16
WATFORD CITY   CLOUDY    28  19  69 E9G17     30.20R WCI  19
BISMARCK       CLOUDY    37  16  42 NE10      30.19R WCI  30
GRAND FORKS    CLEAR     37   9  31 NE20      30.18R WCI  27
FARGO          FAIR      37  23  57 NE10      30.15R WCI  30
BUFFALO SD     PTCLDY    34  21  59 E13G22    30.04R WCI  25
RAPID CITY     PTCLDY    41  27  58 E16       30.06R
$$

REGIONAL REPORTS...WYOMING/IDAHO/WASHINGTON
CITY           SKY/WX    TMP DP  RH WIND       PRES   REMARKS
GILLETTE       CLOUDY    39  30  70 CALM      30.02S
SHERIDAN       CLOUDY    37  34  89 S13       30.02S WCI  29
CODY           CLOUDY    43  23  45 NE7       29.97R
YELLOWSTONE LA MOCLDY    36   9  32 W9        30.00R WCI  29
SALMON         CLOUDY    55  18  23 NE9       29.93S
MULLAN PASS    CLOUDY    30  28  92 VRB5      29.96S WCI  25
SAND POINT     N/A       45  41  86 S7        29.99F
SPOKANE        CLOUDY    50  39  66 SW12      29.98F
$$

REGIONAL REPORTS...ALBERTA
CITY           SKY/WX    TMP DP  RH WIND       PRES   REMARKS
CALGARY        LGT SNOW  30  27  89 SE14      29.97S WCI  19
LETHBRIDGE     CLOUDY    36  30  79 SE9       29.99S WCI  29
MEDICINE HAT   CLOUDY    41  28  60 E7        30.04S
EDMONTON       LGT SNOW  30  25  82 SE18      30.04F VSB 3/4  WCI  18
WATERTON GATE  N/A       34  28  79 N2         N/A
CARDSTON       N/A       36  32  85 SE9        N/A   WCI  29
MILK RIVER     N/A       37  32  82 S8         N/A   WCI  31
$$

REGIONAL REPORTS...SASKATCHEWAN
CITY           SKY/WX    TMP DP  RH WIND       PRES   REMARKS
SWIFT CURRENT  LGT SNOW  28  23  81 SE15G21   30.13S WCI  16
MOOSE JAW      CLOUDY    28  18  66 SE12      30.26R WCI  18
REGINA         LGT RAIN  30  18  61 E10       30.27R WCI  21
VAL MARIE      N/A       37  21  52 SE14       N/A   WCI  28
ASSINIBOIA     N/A       28  19  69 E15        N/A   WCI  16
CORONACH       N/A       27  18  69 E10        N/A   WCI  18

$$




USA.gov is the U.S. government's official web portal to all federal, state and local government web resources and services.